Meteo Giornale » Osservazioni meteo Italia » Brescia-Ghedi

ore: 02:55 - Osservazioni Meteo Brescia-Ghedi
Lat. 45° 25' N Lon. 10° 17' E Alt. 102 metri s.l.m.

sereno Europe/Rome

3 °C

Sereno

Temp. 24 Ore

1 °C

10 °C

Est/Nord-Est

7.4 Km/h

Dew point 3 °C

Umidità 100 %

Visibilità  10 Km

Il sole sorge alle ore 06:42

Il sole tramonta alle ore 18:16

Data e Ora Cielo e Fenomeni T °C DP °C Um. % Pres. hPa Vis. km Vento km/h
Oggi h: 02:55 sereno Sereno 3 3 100 1018 10 E/NE 7.4
Oggi h: 01:55 sereno Sereno 3 3 100 1018 10 E/NE 11.1
Ieri h: 23:55 sereno Sereno 3 3 100 1019 10 N 3.7
Ieri h: 22:55 sereno Sereno 3 3 100 1019 10 N 3.7
Ieri h: 21:55 sereno Sereno 4 3 93 1019 10 N 3.7
Ieri h: 19:55 sereno Sereno 6 2 75 1019 10 N 1.8
Ieri h: 18:55 sereno Sereno 8 2 65 1019 10 N 1.8
Ieri h: 17:55 sereno Sereno 9 3 66 1019 10 N 3.7
Ieri h: 16:55 sereno Sereno 10 3 61 1020 10 N 1.8
Ieri h: 15:55 sereno Sereno 10 3 61 1021 10 O 7.4
Ieri h: 13:55 sereno Sereno 10 3 61 1022 10 N 5.5
Ieri h: 12:55 sereno Sereno 9 2 61 1023 10 N 5.5
Ieri h: 11:55 sereno Sereno 8 2 65 1024 10 S/SO 7.4
Ieri h: 10:55 sereno Sereno 8 1 61 1024 10 N 5.5
Ieri h: 09:55 sereno Sereno 7 1 65 1025 10 N 5.5
Ieri h: 08:55 sereno Sereno 5 3 86 1025 10 N 1.8
Ieri h: 07:55 sereno Sereno 3 3 100 1025 10 N 3.7
Ieri h: 06:55 sereno Sereno 1 1 100 1025 10 N 5.5
Ieri h: 05:55 sereno Sereno 2 2 100 1026 10 N 3.7
Ieri h: 04:55 sereno Sereno 3 3 100 1027 10 N 3.7